This demonstration page uses our WeatherBlox Daily Observations layout. Learn more.

Hourly Observations for June 10, 2020

Temp ( °F °C ) Dew Point ( °F °C ) Humidity (%) Winds ( mph kmh ) Pressure ( in mb ) Visibility ( mi km ) Precip ( " mm )
12:15 am 00:15 Partly Cloudy 55 13 51 10.4 84 84 N 20 31 29.78 1008 10 16.0934 0 0
12:35 am 00:35 Partly Cloudy 55 13 51 10.5 85 85 NNW 16 26 29.79 1009 10 16.0934 0 0
12:55 am 00:55 Clear with Nearby Thunderstorms 55 13 51 10.6 85 85 NNW 17 28 29.79 1009 10 16.0934 0 0
1:15 am 01:15 Clear 56 13.5 51 10.8 84 84 NNW 21 33 29.79 1009 10 16.0934 0 0
1:35 am 01:35 Partly Cloudy 57 13.8 50 10.2 79 79 NNW 20 31 29.8 1009 10 16.0934 0 0
1:55 am 01:55 Clear 57 13.8 50 9.8 77 77 NNW 20 31 29.81 1009 10 16.0934 0 0
2:15 am 02:15 Clear 57 13.7 49 9.4 75 75 NNW 20 31 29.81 1009 10 16.0934 0 0
2:35 am 02:35 Clear 56 13.6 47 8.5 72 72 NNW 18 30 29.82 1010 10 16.0934 0 0
2:55 am 02:55 Clear 56 13.2 46 8 71 71 NNW 21 33 29.83 1010 10 16.0934 0 0
3:15 am 03:15 Clear 55 12.7 47 8.1 74 74 NW 14 22 29.85 1011 10 16.0934 0 0
3:35 am 03:35 Clear 55 12.5 46 8 74 74 NW 15 24 29.86 1011 10 16.0934 0 0
3:55 am 03:55 Clear 54 12.1 46 7.8 75 75 NW 14 22 29.88 1012 10 16.0934 0 0
4:15 am 04:15 Clear 54 12 46 7.7 75 75 NW 14 22 29.89 1012 10 16.0934 0 0
4:35 am 04:35 Clear 53 11.5 46 7.7 78 78 NW 13 20 29.9 1013 10 16.0934 0 0
4:55 am 04:55 Clear 52 11 46 7.5 79 79 NW 10 17 29.91 1013 10 16.0934 0 0
5:15 am 05:15 Clear 51 10.7 45 7.3 80 80 NW 14 22 29.93 1013 10 16.0934 0 0
5:35 am 05:35 Clear 51 10.5 45 7.1 80 80 NW 14 22 29.94 1014 10 16.0934 0 0
5:55 am 05:55 Clear 51 10.5 45 7.1 80 80 WNW 16 26 29.95 1014 10 16.0934 0 0
6:15 am 06:15 Sunny 51 10.3 45 7 80 80 WNW 17 28 29.96 1015 10 16.0934 0 0
6:35 am 06:35 Sunny 51 10.4 44 6.8 79 79 NW 13 20 29.97 1015 10 16.0934 0 0
6:55 am 06:55 Sunny 51 10.5 44 6.8 78 78 NW 14 22 29.98 1015 10 16.0934 0 0
7:15 am 07:15 Sunny 52 11.2 44 6.9 75 75 NW 16 26 29.98 1015 10 16.0934 0 0
7:35 am 07:35 Sunny 53 11.7 45 7.1 74 74 NW 17 28 29.99 1015 10 16.0934 0 0
7:55 am 07:55 Sunny 54 12.4 45 7 70 70 NW 20 31 30 1016 10 16.0934 0 0
8:15 am 08:15 Sunny 55 12.8 45 7.1 69 69 NW 21 33 30.01 1016 10 16.0934 0 0
8:35 am 08:35 Sunny 56 13.2 45 7.1 67 67 NW 22 35 30.01 1016 10 16.0934 0 0
8:55 am 08:55 Sunny 56 13.6 45 7.2 66 66 NW 17 28 30.01 1016 10 16.0934 0 0
9:15 am 09:15 Sunny 57 14 46 7.7 66 66 NW 18 30 30.02 1017 10 16.0934 0 0
9:35 am 09:35 Sunny 58 14.7 47 8.2 65 65 NW 18 30 30.01 1016 10 16.0934 0 0
9:55 am 09:55 Sunny 60 15.5 47 8.1 62 62 NW 15 24 30.01 1016 10 16.0934 0 0
10:15 am 10:15 Sunny 61 16.3 46 7.8 57 57 NW 16 26 30.01 1016 10 16.0934 0 0
10:35 am 10:35 Sunny 62 16.9 47 8.5 58 58 NW 17 28 30 1016 10 16.0934 0 0
10:55 am 10:55 Sunny 63 17.4 47 8.2 55 55 NW 21 33 30.01 1016 10 16.0934 0 0
11:15 am 11:15 Sunny 64 18 47 8.3 53 53 NW 15 24 30 1016 10 16.0934 0 0
11:35 am 11:35 Sunny 65 18.4 46 7.6 50 50 NW 18 30 30.01 1016 10 16.0934 0 0
11:55 am 11:55 Sunny 66 18.8 46 7.8 49 49 NW 15 24 30.02 1016 10 16.0934 0 0
12:15 pm 12:15 Sunny 66 19.1 46 7.8 48 48 NNW 16 26 30.01 1016 10 16.0934 0 0
12:35 pm 12:35 Sunny 67 19.7 47 8.5 49 49 NW 15 24 30.01 1016 10 16.0934 0 0
12:55 pm 12:55 Sunny 68 20 47 8.4 47 47 NW 13 20 30.02 1016 10 16.0934 0 0
1:15 pm 13:15 Partly Cloudy 69 20.5 46 7.5 43 43 NW 16 26 30.01 1016 10 16.0934 0 0
1:35 pm 13:35 Partly Cloudy 69 20.7 45 7.2 42 42 NW 16 26 30.01 1016 10 16.0934 0 0
1:55 pm 13:55 Sunny 70 21.3 43 6.3 38 38 NW 15 24 30.01 1016 10 16.0934 0 0
2:15 pm 14:15 Sunny 71 21.8 44 6.7 38 38 NNW 14 22 30 1016 10 16.0934 0 0
2:35 pm 14:35 Sunny 72 22 43 6 36 36 NNW 10 17 30 1016 10 16.0934 0 0
2:55 pm 14:55 Sunny 72 22.3 43 5.9 35 35 NNW 12 19 30 1016 10 16.0934 0 0
3:15 pm 15:15 Sunny 73 22.5 42 5.5 33 33 NW 13 20 29.99 1015 10 16.0934 0 0
3:35 pm 15:35 Sunny 73 23 41 5.2 32 32 NW 15 24 29.99 1016 10 16.0934 0 0
3:55 pm 15:55 Sunny 74 23.1 42 5.4 32 32 NW 13 20 29.99 1016 10 16.0934 0 0
4:15 pm 16:15 Sunny 74 23.2 42 5.5 32 32 NNW 16 26 29.99 1016 10 16.0934 0 0
4:35 pm 16:35 Sunny 74 23.3 42 5.8 32 32 NW 14 22 29.98 1015 10 16.0934 0 0
4:55 pm 16:55 Sunny 74 23.6 42 5.6 31 31 NW 12 19 29.98 1015 10 16.0934 0 0
5:15 pm 17:15 Sunny 75 23.7 42 5.5 31 31 NNW 12 19 29.98 1015 10 16.0934 0 0
5:35 pm 17:35 Sunny 74 23.4 42 5.4 31 31 NNW 15 24 29.98 1015 10 16.0934 0 0
5:55 pm 17:55 Sunny 75 24 42 5.7 31 31 N 8 13 29.97 1015 10 16.0934 0 0
6:15 pm 18:15 Partly Cloudy 75 24.1 44 6.5 32 32 NNW 10 17 29.97 1015 10 16.0934 0 0
6:35 pm 18:35 Sunny 75 24 42 5.8 31 31 NNW 10 17 29.97 1015 10 16.0934 0 0
6:55 pm 18:55 Sunny 75 24 43 6.1 32 32 NNW 8 13 29.97 1015 10 16.0934 0 0
7:15 pm 19:15 Sunny 75 23.8 43 6 32 32 NNW 7 11 29.98 1015 10 16.0934 0 0
7:35 pm 19:35 Sunny 74 23.6 43 6.3 33 33 NNW 5 7 29.98 1015 10 16.0934 0 0
7:55 pm 19:55 Sunny 74 23.5 45 7.2 35 35 Calm 29.98 1015 10 16.0934 0 0
8:15 pm 20:15 Sunny 73 23 47 8.4 39 39 Calm 29.98 1015 10 16.0934 0 0
8:35 pm 20:35 Sunny 72 22.4 49 9.3 43 43 Calm 29.99 1015 10 16.0934 0 0
8:55 pm 20:55 Sunny 71 21.6 48 8.9 44 44 Calm 29.99 1016 10 16.0934 0 0
9:15 pm 21:15 Clear 66 19 54 12.1 64 64 Calm 30.03 1017 10 16.0934 0 0
9:35 pm 21:35 Clear 67 19.3 53 11.6 61 61 SE 3 6 30.02 1017 10 16.0934 0 0
9:55 pm 21:55 Clear 64 17.5 52 11.1 66 66 ESE 3 6 30.04 1017 10 16.0934 0 0
10:15 pm 22:15 Clear 64 17.8 50 10.1 61 61 Calm 30.06 1018 10 16.0934 0 0
10:35 pm 22:35 Clear 60 15.8 51 10.8 72 72 Calm 30.08 1019 10 16.0934 0 0
10:55 pm 22:55 Clear 59 15.2 52 10.9 76 76 SE 5 7 30.09 1019 10 16.0934 0 0
11:15 pm 23:15 Clear 59 15 50 10 72 72 SE 5 7 30.09 1019 10 16.0934 0 0
11:35 pm 23:35 Clear 60 15.6 48 8.8 64 64 SSE 3 6 30.09 1019 10 16.0934 0 0
11:55 pm 23:55 Clear 58 14.2 49 9.4 73 73 SSE 3 6 30.11 1020 10 16.0934 0 0

Powered by AerisWeather